Location: Allentsteig
(48.6833°N, 15.3167°E)
Time: 16:00:07
(UTC+00:00)

Okean 1 Rocket - Pass Details

Date: 18 September 2020
Orbit: 605 x 635 km, 82.5° (Epoch: 29 October)

Event Time Altitude Azimuth Distance (km) Brightness Sun altitude
Exits shadow 19:51:19 49° 244° (WSW) 827 3.7 -26.4°
Maximum altitude 19:52:05 56° 283° (WNW) 760 3.7 -26.5°
Drops below altitude 10° 19:56:32 10° 2° (N) 2,035 6.1 -27.1°
Sets 19:58:50 0° 7° (N) 2,948 7.0 -27.4°
